www.pogodaiklimat.ru

Погода и климат >> Архив погоды >> Аргентина >> Las Flores


ПОГОДА в Las Flores

  • Прогноз погоды в Las Flores
  • Монитор погоды в Las Flores
  • Климат города

АРХИВ ПОГОДЫ в Las Flores

Время (UTC), дата Ветер
(напр.,м/с)
 
Видим.   Явления Облачность Т
(С)
Тd
(С)
f
(%)
Тe
(С)
Тes
(С)
Комфортность P
(гПа)
Po
(гПа)
Тmin
(С)
Tmax
(С)
R
(мм)
R24
(мм)
S
(см)
15 21.06 СЗ 2 15 км 5/0
[Ac trans]
+10.8 +4.7 66 +10 +13 1020.9 1016.5
18 21.06 СЗ 2 15 км 8/0
[Ac trans]
+12.2 +2.7 52 +12 +13 1017.9 1013.6
21 21.06 СЗ 2 15 км 8/0
[Ci]
+9.4 +4.5 71 +8 +8 1015.8 1011.4
00 22.06 СЗ 2 15 км ясно +8.0 +4.6 79 +6 +6 1015.6 1011.2 +6.4 +12.4
09 22.06 В 2 15 км 10/10 750 м
[Sc]
+11.3 +9.3 87 +10 +10 1010.2 1005.8
12 22.06 СЗ 3 15 км 10/10 750 м
[Sc]
+12.6 +10.5 87 +11 +11 1010.6 1006.2 +6.1 +12.6
15 22.06 СЗ 3 15 км 10/10 750 м
[Sc]
+14.3 +12.3 88 +13 +13 1010.5 1006.2
18 22.06 СЗ 4 15 км 10/10 750 м
[Sc]
+17.1 +13.4 79 +17 +17 1007.0 1002.6
21 22.06 СЗ 2 6000 м слабая морось 10/10 750 м
[Sc]
+17.0 +15.0 88 +17 +17 1006.3 1002.0
00 23.06 СЗ 2 6000 м слабая морось 10/10 750 м
[Sc]
+15.0 +13.6 91 +15 +15 1009.8 1005.4 +12.6 +17.6 0.3
09 23.06 штиль 0 15 км {дождь} 10/10 750 м
[Sc]
+15.0 +13.4 90 +15 +15 1010.9 1006.6
12 23.06 СЗ 2 6000 м слабый дождь {морось} 10/10 750 м
[Sc]
+15.6 +12.7 83 +15 +15 1011.5 1007.3 +14.8 +15.6 2
15 23.06 СЗ 2 15 км {дождь} 10/10 750 м
[Sc]
+17.1 +15.1 88 +17 +17 1011.4 1007.0
18 23.06 ЮВ 5 15 км 10/10 750 м
[Sc]
+13.8 +11.6 87 +12 +12 1011.2 1006.9 0.2
21 23.06 ЮВ 7 15 км 10/10 750 м
[Sc]
+12.1 +10.2 88 +9 +9 1012.7 1008.4
00 24.06 ЮВ 8 15 км 10/10 750 м
[Sc]
+11.0 +7.3 78 +7 +7 1015.2 1010.9 +10.9 +17.5
12 24.06 В 10 15 км 10/10 750 м
[Sc]
+11.2 +9.4 89 +7 +7 1018.0 1013.6 +9.5 +11.3 0.2
18 24.06 В 7 15 км {морось} 10/10 750 м
[Sc]
+13.3 +12.0 92 +11 +11 1015.5 1011.2 0.1
00 25.06 штиль 0 100 м туман ?/? +14.0 +12.5 91 +14 +14 1013.8 1009.4 +11.1 +14.3
12 25.06 С 4 15 км {туман} 10/10 750 м
[Frnb]
+18.0 +14.0 77 +18 +18 1014.8 1010.5 +13.1 +18.0 0.0
09 27.06 В 3 6000 м дождь {морось} 10/10 750 м
[Frnb]
+13.3 +11.6 89 +12 +12 1009.9 1005.7
12 27.06 ЮВ 7 15 км {дождь} 10/10 750 м
[Frnb]
+13.0 +10.1 83 +10 +10 1010.8 1006.5 +12.7 +18.0 25

 

Местоположение метеостанции Las Flores (Аргентина): широта -36.07 долгота -59.10 высота над уровнем моря 38 м.

В архиве по умолчанию представлена погода в Las Flores за последнюю неделю. Архивные данные за месяц целиком и за предыдущие месяцы, начиная с января 2011 года, Вы можете получить, выбрав интересующий диапазон дат из раскрывающегося списка и нажав кнопку "Ввод!".

Внимание! Время в таблицах - всемирное. Для получения местного времени необходимо прибавить поправку, которая в Las Flores равна -3 ч.

Смотрите также архив погоды в соседних городах и на ближайших метеорологических станциях:

Погода в Azul (Аргентина) (110 км)
Погода в Dolores (Аргентина) (127 км)
Погода в Tandil (Аргентина) (130 км)
Погода в Ezeiza (Аргентина) (149 км)
Погода в La Plata (Аргентина) (164 км)
Погода в Buenos Aires (Аргентина) (175 км)
Погода в Bolivar (Аргентина) (178 км)
Погода в Buenos Aires Aeropuerto (Аргентина) (179 км)
Погода в Colonia (Уругвай) (214 км)
Погода в Junin (Аргентина) (236 км)

Пояснения к столбцам:

Ветер - указаны скорость ветра в м/с - средняя за 10 мин, порывы в срок и между сроками (в фигурных скобках) и направление, откуда дует ветер: С - северный, СВ - северо-восточный, В - восточный, ЮВ - юго-восточный, Ю - южный, ЮЗ - юго-западный, З - западный, СЗ - северо-западный.
Видимость - горизонтальная дальность видимости в метрах или километрах. При видимости от 1 до 10 км при отсутствии осадков обычно наблюдается дымка, при ухудшении видимости до 1 км и менее - туман. В сухую погоду видимость может ухудшаться дымом, пылью или мглою.
Явления - указаны атмосферные явления, наблюдавшиеся в срок или в последний час перед сроком; фигурными скобками обозначены явления, наблюдавшиеся между сроками (за 1-3 часа до срока); квадратными скобками обозначены град или гололедные отложения с указанием их диаметра в мм.
Облачность - указаны через наклонную черту общая и нижняя облачность в баллах и высота нижней границы облаков в метрах; квадратными скобками обозначены формы облаков: Ci - перистые, Cs - перисто-слоистые, Cc - перисто-кучевые, Ac - высококучевые, As - высокослоистые, Sc - слоисто-кучевые, Ns - слоисто-дождевые, Cu - кучевые, Cb - кучево-дождевые. Подробнее классификацию облаков см. в Атласе облаков (PDF).
T - Температура воздуха - температура, измеренная на высоте 2 м над землей.
Td - Температура точки росы - температура, при понижении до которой содержащийся в воздухе водяной пар достигнет насыщения.
f - Относительная влажность воздуха - влажноcть воздуха, измеренная на высоте 2 м над землей.
Te - Эффективная температура - температура, которую ощущает одетый по сезону человек в тени. Характеристика душности погоды. При расчете учитывается влияние влажности воздуха и скорости ветра на теплоощущения человека.
Tes - Эффективная температура на солнце - температура, которую ощущает человек, с поправкой на солнечный нагрев. Характеристика знойности погоды. Зависит от высоты солнца над горизонтом, облачности и скорости ветра. Ночью, в пасмурную погоду, а также при ветре 12 м/с и более поправка равна нулю.
P - Атмосферное давление - приведенное к уровню моря атмосферное давление.
Po - Атмосферное давление - измеренное на уровне метеостанции атмосферное давление.
Tmin - Минимальная температура - минимум температуры воздуха на высоте 2 м над землей.
Tmax - Максимальная температура - максимум температуры воздуха на высоте 2 м над землей.
R - Количество осадков - Количество выпавших осадков за период времени, мм. При наведении курсора мыши на число - период времени, за который выпало указанное количество осадков.
R24 - Количество осадков - Количество выпавших осадков за 24 часа, мм.
S - Снежный покров - Высота снежного покрова, см. При наведении курсора мыши на число - состояние снежного покрова и степень покрытия местности в баллах.